C4984 Weather Reports


Display with metric or nautical units.
time (UTC)temp
F
wind
direction
speed
MPH
gust
MPH
rain 1hr
in
rain 24hr
in
rain mn
in
humidity
%
barometer
mb
20260904082102 78 174 0.0 2.0 0.00 0.00 0.00 88 1009.8
20260904081104 78 195 0.0 3.0 0.00 0.00 0.00 87 1009.8
20260904080115 78 49 0.0 1.0 0.00 0.00 0.00 87 1009.8
20260904075056 78 118 0.0 2.0 0.00 0.00 0.00 87 1009.7
20260904074115 78 359 0.0 1.0 0.00 0.00 0.00 86 1009.7
20260904073127 79 188 0.0 0.0 0.00 0.00 0.00 86 1009.7
20260904072056 79 184 0.0 1.0 0.00 0.00 0.00 85 1009.5
20260904071058 79 165 0.0 2.0 0.00 0.00 0.00 85 1009.7
20260904064925 79 90 0.0 2.0 0.00 0.00 0.00 84 1009.9
20260904063926 79 5 0.0 1.0 0.00 0.00 0.00 84 1010.1
20260904062910 80 179 0.0 2.0 0.00 0.00 0.00 83 1010.4
20260904060738 80 46 0.0 1.0 0.00 0.00 0.00 83 1010.6
20260904054612 81 195 0.0 2.0 0.00 0.00 0.00 82 1010.9
20260904053548 81 165 0.0 3.0 0.00 0.00 0.00 82 1011.0
20260904052520 81 49 0.0 2.0 0.00 0.00 0.00 81 1011.2
20260904051526 81 141 0.0 2.0 0.00 0.00 0.00 81 1011.2
20260904050551 82 105 0.0 3.0 0.00 0.00 0.00 81 1011.1
20260904045529 82 207 0.0 3.0 0.00 0.00 0.00 82 1011.0
20260904044536 82 43 0.0 0.0 0.00 0.00 0.00 82 1011.0
20260904043527 82 103 0.0 4.0 0.00 0.00 0.00 82 1011.0
20260904042547 82 122 0.0 1.0 0.00 0.00 0.00 82 1011.0
20260904041536 83 177 0.0 2.0 0.00 0.00 0.00 81 1011.0
20260904035420 83 136 0.0 2.0 0.00 0.00 0.00 80 1010.5
20260904034348 84 111 0.0 0.0 0.00 0.00 0.00 80 1010.5
20260904033349 84 288 0.0 4.0 0.00 0.00 0.00 79 1010.5
20260904031146 84 143 0.0 0.0 0.00 0.00 0.00 79 1010.8
20260904025043 84 30 0.0 1.0 0.00 0.00 0.00 79 1011.0
20260904024057 84 165 0.0 0.0 0.00 0.00 0.00 78 1011.0
20260904023047 84 103 0.0 1.0 0.00 0.00 0.00 79 1011.0
20260904022018 84 179 0.0 0.0 0.00 0.00 0.00 79 1011.0
20260904015919 84 179 0.0 0.0 0.00 0.00 0.00 78 1011.1
20260904014931 84 179 0.0 0.0 0.00 0.00 0.00 77 1011.0
20260904013943 84 158 0.0 0.0 0.00 0.00 0.00 77 1010.9
20260904012959 85 158 0.0 3.0 0.00 0.00 0.00 76 1010.9
20260904012008 85 140 0.0 0.0 0.00 0.00 0.00 76 1010.6
20260904011018 85 44 0.0 0.0 0.00 0.00 0.00 75 1010.4
20260904004825 86 44 0.0 0.0 0.00 0.00 0.00 73 1010.2
20260904003807 87 35 0.0 0.0 0.00 0.00 0.00 72 1010.0
20260904002734 87 75 0.0 0.0 0.00 0.00 0.00 71 1009.6
20260904001751 88 170 0.0 5.0 0.00 0.00 0.00 70 1009.6
20260903235615 89 89 0.0 1.0 0.00 0.00 0.00 66 1009.4
20260903234620 90 85 0.0 2.0 0.00 0.00 0.00 65 1009.4
20260903233602 91 132 0.0 3.0 0.00 0.00 0.00 63 1009.4
20260903232558 91 130 0.0 1.0 0.00 0.00 0.00 62 1009.5
20260903230456 94 110 1.0 5.0 0.00 0.00 0.00 59 1009.6
20260903225454 95 147 1.0 4.0 0.00 0.00 0.00 57 1009.4
20260903224427 96 102 0.0 2.0 0.00 0.00 0.00 55 1009.4
20260903223445 97 170 0.0 6.0 0.00 0.00 0.00 54 1009.3
20260903220226 99 117 1.0 4.0 0.00 0.00 0.00 52 1009.2
20260903215206 98 150 0.0 3.0 0.00 0.00 0.00 53 1009.4
20260903213010 97 354 0.0 4.0 0.00 0.00 0.00 55 1009.5
20260903212017 98 1 0.0 4.0 0.00 0.00 0.00 54 1009.5
20260903210956 98 8 0.0 4.0 0.00 0.00 0.00 53 1009.5
20260903203654 100 316 0.0 4.0 0.00 0.00 0.00 49 1009.6
20260903202657 99 9 0.0 3.0 0.00 0.00 0.00 50 1009.9
20260903201658 99 170 1.0 5.0 0.00 0.00 0.00 49 1009.9
20260903200704 100 168 1.0 5.0 0.00 0.00 0.00 50 1010.0
20260903195636 101 158 1.0 4.0 0.00 0.00 0.00 47 1010.0
20260903194604 101 120 1.0 4.0 0.00 0.00 0.00 47 1010.0
20260903193619 101 22 0.0 4.0 0.00 0.00 0.00 45 1010.3
20260903192616 100 275 1.0 8.0 0.00 0.00 0.00 45 1010.5
20260903191603 100 131 1.0 8.0 0.00 0.00 0.00 45 1010.5
20260903185509 100 201 1.0 5.0 0.00 0.00 0.00 45 1010.9
20260903184443 101 126 1.0 6.0 0.00 0.00 0.00 42 1010.9
20260903183446 100 123 1.0 6.0 0.00 0.00 0.00 44 1011.1
20260903182422 100 97 0.0 6.0 0.00 0.00 0.00 46 1011.1
20260903181439 100 177 0.0 6.0 0.00 0.00 0.00 45 1011.1
20260903180417 100 297 0.0 4.0 0.00 0.00 0.00 49 1011.2
20260903175422 99 278 0.0 2.0 0.00 0.00 0.00 49 1011.5
20260903174404 98 175 1.0 5.0 0.00 0.00 0.00 50 1011.5
20260903173359 97 248 1.0 5.0 0.00 0.00 0.00 51 1011.5
20260903172406 97 120 1.0 3.0 0.00 0.00 0.00 52 1011.6
20260903171349 97 112 1.0 3.0 0.00 0.00 0.00 56 1011.7
20260903170412 97 107 1.0 4.0 0.00 0.00 0.00 56 1011.7
20260903165431 97 159 1.0 4.0 0.00 0.00 0.00 55 1012.0
20260903163352 96 155 0.0 2.0 0.00 0.00 0.00 54 1012.1
20260903162333 96 11 0.0 1.0 0.00 0.00 0.00 60 1012.2
20260903161326 95 1 0.0 2.0 0.00 0.00 0.00 63 1012.2
20260903160258 94 284 0.0 2.0 0.00 0.00 0.00 64 1012.2
20260903155306 93 41 0.0 3.0 0.00 0.00 0.00 68 1012.3
20260903152042 91 94 0.0 3.0 0.00 0.00 0.00 70 1012.4
20260903151030 90 87 0.0 4.0 0.00 0.00 0.00 73 1012.6
20260903145956 90 82 1.0 4.0 0.00 0.00 0.00 73 1012.6
20260903144949 90 88 0.0 3.0 0.00 0.00 0.00 73 1012.4
20260903143921 90 46 0.0 3.0 0.00 0.00 0.00 75 1012.3
20260903142923 88 304 0.0 3.0 0.00 0.00 0.00 75 1012.3
20260903140712 85 143 0.0 4.0 0.00 0.00 0.00 82 1012.3
20260903135714 84 158 0.0 3.0 0.00 0.00 0.00 83 1012.4
20260903134727 82 207 0.0 3.0 0.00 0.00 0.00 88 1012.4
20260903133700 81 169 0.0 2.0 0.00 0.00 0.00 90 1012.3
20260903131510 78 76 0.0 1.0 0.00 0.00 0.00 94 1012.4
20260903130438 78 108 0.0 0.0 0.00 0.00 0.00 94 1012.4
20260903125422 77 204 0.0 2.0 0.00 0.00 0.00 95 1012.4
20260903124404 77 111 0.0 2.0 0.00 0.00 0.00 97 1012.6
20260903122248 76 246 0.0 0.0 0.00 0.00 0.00 98 1012.5
20260903120128 75 155 0.0 0.0 0.00 0.00 0.00 98 1012.3
20260903112834 74 11 0.0 0.0 0.00 0.00 0.00 98 1012.1
20260903111814 73 11 0.0 0.0 0.00 0.00 0.00 98 1012.1
20260903105645 73 11 0.0 0.0 0.00 0.00 0.00 97 1011.7
20260903104658 73 11 0.0 0.0 0.00 0.00 0.00 97 1011.7
20260903103711 73 11 0.0 0.0 0.00 0.00 0.00 97 1011.6
20260903102722 73 11 0.0 0.0 0.00 0.00 0.00 97 1011.5
20260903101733 73 11 0.0 0.0 0.00 0.00 0.00 97 1011.5
20260903095553 73 11 0.0 0.0 0.00 0.00 0.00 96 1011.2
20260903094541 73 11 0.0 0.0 0.00 0.00 0.00 96 1011.2
20260903092414 73 11 0.0 0.0 0.00 0.00 0.00 96 1011.2
20260903091414 73 11 0.0 1.0 0.00 0.00 0.00 96 1011.2
20260903090419 73 11 0.0 0.0 0.00 0.00 0.00 96 1011.1
20260903085428 73 11 0.0 0.0 0.00 0.00 0.00 96 1011.1
20260903084445 73 11 0.0 0.0 0.00 0.00 0.00 96 1011.1